Theta_e
309 309 309 309 309 311 312 313 312 312 312 315 314 315 316 317 325 328 333 333 330 338 347 352 346 338 337 343 346 351 337 327 326 328 328 327 326 326 325 324 323 318 316 317
310 309 309 310 310 310 310 311 310 310 311 313 312 313 315 316 318 327 328 331 327 328 341 342 340 335 335 336 337 332 327 326 326 327 327 326 326 326 325 324 322 320 318 318
310 311 312 311 312 312 311 310 310 311 312 311 312 312 314 316 317 319 323 327 326 327 341 340 338 336 333 330 330 328 327 327 325 325 326 326 326 326 324 323 323 322 320 320
309 309 311 311 312 311 311 311 312 313 311 312 311 312 312 313 316 318 322 319 322 323 338 339 336 336 334 331 330 328 326 326 325 325 326 326 326 325 324 323 323 323 322 321
312 313 313 313 313 313 313 314 313 313 312 311 312 310 310 313 316 317 320 322 322 320 334 338 337 337 335 333 330 328 326 325 325 325 324 325 325 325 324 324 324 323 323 322
312 312 313 314 315 315 315 316 313 310 310 313 314 312 311 311 314 314 316 319 319 321 329 335 337 336 334 331 328 327 326 326 325 325 324 325 325 324 325 324 324 323 324 322
314 313 313 315 315 315 315 313 315 315 313 316 311 311 311 312 311 312 313 315 316 319 322 332 333 332 330 328 327 327 326 326 326 325 325 325 324 325 325 325 325 323 323 323
318 320 316 315 317 314 312 313 316 317 315 316 314 316 315 312 313 313 313 313 314 315 319 323 330 330 329 326 327 328 327 326 326 325 324 325 325 326 326 326 323 325 324 323
315 319 315 320 316 316 318 314 312 315 314 315 315 315 317 317 317 317 316 316 314 313 315 319 321 328 328 326 327 327 327 326 326 325 326 327 328 328 327 325 325 325 323 323
310 314 316 316 317 314 317 317 319 314 317 317 315 316 316 320 321 321 320 316 315 313 312 316 319 324 327 327 327 327 327 326 326 327 327 327 328 326 326 326 325 324 324 323
306 311 314 314 316 313 318 311 314 317 314 315 316 316 322 321 319 320 320 319 314 313 314 310 316 322 325 326 326 328 327 327 327 328 327 326 328 328 327 326 325 325 324 323
305 308 309 312 309 312 309 308 310 316 321 321 315 316 319 319 317 319 322 321 320 318 316 314 316 320 325 325 326 328 328 328 327 327 329 329 329 328 327 326 326 326 324 323
303 303 307 306 310 307 307 305 306 307 313 322 322 319 320 319 318 317 318 321 320 319 319 318 317 317 323 326 327 329 329 328 328 327 328 330 330 329 328 327 327 325 324 324
302 304 308 308 310 307 306 304 303 306 312 313 317 317 313 319 318 317 317 315 319 319 318 319 317 318 324 327 328 329 330 330 329 328 327 328 328 328 327 327 327 325 324 324
299 303 305 304 304 304 304 302 302 302 303 308 312 310 312 315 317 315 315 316 315 317 319 318 317 316 320 325 328 329 329 329 329 329 329 329 328 328 328 328 327 325 325 325
298 297 302 302 303 301 301 300 300 300 301 303 308 311 309 309 313 310 314 317 318 317 321 320 317 317 317 321 325 328 329 329 330 330 330 330 329 329 328 327 327 326 326 324
296 297 297 300 300 300 300 300 300 300 302 304 305 307 305 305 307 309 315 312 316 320 321 321 319 318 317 318 318 322 326 328 328 328 328 329 328 328 328 327 327 326 324 323
295 296 296 298 300 301 300 300 300 301 301 301 301 304 305 304 307 312 314 313 311 313 320 320 316 319 320 318 318 322 324 324 327 327 327 327 327 327 326 326 325 324 322 320
296 296 296 295 298 300 301 301 301 301 301 301 302 302 303 307 309 309 313 312 313 310 315 314 314 316 317 319 320 320 321 324 321 323 325 325 326 326 326 324 322 319 317 314
298 298 297 298 295 299 300 301 301 301 302 301 301 301 301 308 311 308 311 310 313 313 314 316 316 315 316 319 321 320 318 320 320 320 322 324 325 325 322 319 316 314 313 311
301 301 301 301 299 299 301 302 302 303 301 305 304 303 307 308 308 308 311 309 312 312 314 314 314 315 316 320 321 319 318 314 316 317 316 317 317 315 314 313 312 311 309 308
302 304 299 302 301 303 301 303 304 301 302 306 305 306 307 306 306 307 308 309 310 311 311 313 314 315 316 318 318 317 316 315 316 315 316 314 312 311 311 310 309 308 306 305
304 304 304 304 301 300 301 304 303 301 301 302 303 303 303 304 304 304 304 305 308 308 310 313 313 315 317 318 320 318 315 314 316 315 315 311 311 309 308 308 307 306 305 304
302 303 304 304 304 303 302 302 302 302 301 301 301 301 301 302 302 302 302 303 304 307 309 309 313 313 315 318 320 319 318 318 315 312 310 309 308 307 306 305 305 304 303 301
304 304 305 305 304 303 302 301 301 301 301 301 300 301 301 301 302 302 302 303 303 306 308 309 312 313 313 316 318 315 312 312 310 309 308 307 307 306 305 304 303 302 301 300
303 304 305 305 302 302 302 300 301 302 301 300 301 301 302 301 301 301 302 303 304 305 308 309 312 313 314 314 312 311 311 310 310 308 306 304 303 302 302 301 302 301 301 301
Wind_Speed
5 4 6 11 8 6 4 3 8 5 6 5 9 6 10 7 22 15 8 10 8 13 10 22 24 29 34 40 42 45 43 41 38 37 38 32 29 24 19 15 11 9 7 7
1 5 9 10 6 6 6 6 7 8 4 6 10 11 10 6 11 24 27 14 13 9 11 11 23 29 38 42 43 48 48 46 44 42 41 36 29 24 20 17 13 9 7 5
8 7 4 7 5 5 5 5 6 10 8 5 9 8 6 7 7 11 15 13 15 20 20 16 19 31 34 38 46 51 52 49 46 41 37 31 26 22 20 19 16 12 9 4
7 6 8 8 7 8 7 9 13 11 3 7 7 6 5 6 10 11 19 12 11 14 18 21 21 28 38 44 41 44 50 50 45 43 40 38 33 27 23 26 19 14 11 5
10 7 7 10 8 7 9 9 10 10 7 3 4 3 8 1 7 9 11 16 17 19 22 23 24 37 44 39 42 44 46 48 48 46 40 39 36 33 26 24 21 17 13 7
8 4 7 11 11 8 6 4 3 4 3 3 17 9 4 5 7 4 8 17 16 17 21 23 34 40 36 34 30 35 44 48 48 46 42 42 42 36 28 26 23 19 14 9
7 5 6 1 6 3 4 5 5 4 0 10 5 4 8 8 10 11 10 12 11 17 20 24 24 22 29 33 36 36 39 43 48 44 42 43 41 38 33 28 25 21 17 12
4 7 8 11 5 6 7 8 6 7 4 7 3 6 8 12 10 8 6 9 7 10 15 21 28 27 34 37 39 39 40 37 45 45 44 44 41 37 32 28 26 23 19 12
7 5 8 3 7 6 5 3 6 5 1 3 4 9 2 1 5 10 8 8 10 11 15 21 22 27 34 39 43 44 41 37 42 47 42 44 40 36 35 29 25 23 18 14
1 5 4 8 5 7 2 4 3 3 5 5 5 5 2 8 10 11 15 12 15 9 9 17 20 26 38 39 39 40 41 42 46 41 41 42 36 32 30 27 25 23 18 15
4 2 6 6 6 4 6 5 5 3 2 5 3 3 5 5 7 9 12 11 10 10 3 6 15 30 38 34 34 36 36 34 36 38 40 39 36 33 29 29 27 23 18 15
4 1 4 3 7 8 12 4 4 3 6 3 2 2 5 2 6 10 13 13 12 12 10 7 5 10 17 23 27 33 32 31 33 37 40 38 37 33 30 29 25 22 18 16
5 3 4 6 4 7 6 12 12 6 3 5 1 4 1 8 10 9 11 12 12 13 13 12 9 6 8 18 20 23 27 27 31 36 39 39 36 32 30 28 25 22 20 18
3 1 3 4 2 3 6 11 9 3 4 8 7 8 16 10 10 10 11 10 12 9 11 12 11 7 9 11 18 24 26 31 34 35 36 39 37 33 29 25 24 24 22 20
5 4 4 6 7 8 11 14 10 10 9 6 10 18 10 12 11 8 5 8 10 13 10 10 11 8 9 16 15 14 18 25 31 30 34 36 34 32 28 26 27 25 23 19
1 2 4 6 8 8 13 14 14 13 15 17 15 15 7 8 9 15 9 5 7 6 7 7 9 10 8 12 13 12 16 22 30 35 36 35 32 28 27 28 28 26 22 18
6 4 2 5 3 3 8 13 15 14 13 9 11 7 5 9 11 11 9 9 4 3 4 4 8 6 7 13 14 10 17 18 21 21 18 27 30 29 31 29 26 23 21 16
6 6 4 4 2 3 7 8 9 13 14 14 17 10 5 6 9 5 3 2 7 7 8 5 5 10 8 8 11 16 10 17 18 17 12 15 21 25 24 23 22 20 16 14
9 5 2 2 3 7 13 6 6 7 15 14 12 10 6 6 6 7 5 6 6 5 5 10 12 11 14 8 11 13 19 11 14 18 23 19 18 19 20 21 20 17 13 10
6 2 4 3 4 8 3 6 7 3 11 16 16 17 11 8 7 6 7 5 2 12 7 8 10 12 12 12 7 14 14 16 11 9 15 17 19 21 23 21 16 12 9 10
3 3 8 8 7 8 7 9 4 6 8 3 3 6 7 5 6 6 3 5 1 1 10 13 7 5 14 7 13 20 20 17 21 21 19 20 19 19 15 12 8 7 8 10
7 4 4 3 5 11 8 2 9 9 2 4 4 4 6 6 7 6 8 4 5 3 3 5 13 6 9 6 6 15 19 19 17 16 16 10 9 7 7 5 6 7 8 7
8 10 5 8 7 4 3 3 5 2 4 5 7 7 7 7 7 7 7 7 5 8 8 7 4 5 11 7 8 7 13 15 17 15 7 9 9 9 7 3 3 4 6 8
6 9 6 5 12 22 22 19 17 17 18 10 10 11 5 9 9 9 7 7 6 5 8 8 8 6 4 5 6 7 13 13 14 19 17 12 6 3 2 3 2 4 6 10
9 3 11 17 17 18 19 15 14 14 13 10 12 13 13 10 12 13 7 7 8 12 9 9 12 10 7 6 6 11 16 19 18 14 12 8 6 2 2 0 3 6 10 12
11 19 11 13 10 10 14 8 9 12 15 13 12 12 10 11 12 10 7 9 10 13 13 11 14 12 9 9 12 15 16 16 15 12 10 9 9 8 5 3 7 10 11 12
Wind_Direction
181 144 194 223 202 196 202 247 254 264 272 321 271 258 262 202 183 224 186 198 187 195 199 181 167 165 165 173 178 182 177 172 172 171 167 167 167 166 167 169 161 148 133 96
26 209 220 203 200 181 195 236 276 283 263 177 273 272 254 212 209 217 250 214 192 155 176 171 172 169 171 172 177 177 178 178 177 175 173 173 169 171 174 174 169 165 155 115
203 230 171 177 237 223 228 206 244 244 296 245 263 289 267 257 211 218 218 218 194 172 175 178 180 182 176 178 181 181 182 183 182 179 173 167 168 170 177 182 181 177 169 140
211 237 215 223 221 177 245 208 236 253 147 257 137 271 269 245 221 205 204 193 186 186 183 182 185 185 187 191 187 186 186 186 185 182 176 176 176 174 190 191 185 184 179 170
235 194 215 226 221 178 234 236 214 232 214 231 219 137 255 307 227 235 234 228 224 182 186 188 189 191 195 187 189 188 187 188 186 184 185 184 184 193 194 192 189 189 188 187
244 226 205 233 239 210 216 281 66 51 117 220 232 185 250 201 220 258 230 244 219 184 192 193 196 195 194 190 187 188 189 188 188 186 187 191 191 191 191 190 190 191 193 199
329 268 287 65 262 258 161 75 300 310 29 235 152 142 224 219 222 232 225 232 226 210 192 191 194 195 192 193 188 189 188 188 191 187 192 196 198 195 195 192 191 190 193 204
350 334 12 343 341 265 211 169 170 225 213 261 228 229 249 218 235 259 258 243 228 202 199 204 190 190 193 192 192 187 188 187 190 192 198 200 200 200 201 200 196 197 199 203
359 279 319 25 337 358 322 168 232 196 239 86 233 281 110 247 1 342 313 301 267 209 203 198 198 202 196 191 191 188 187 189 188 192 197 200 198 201 201 200 199 198 195 201
333 291 301 320 10 29 61 316 4 5 191 229 268 269 264 1 345 339 343 332 314 298 233 202 194 196 200 201 195 187 187 185 189 188 195 195 193 193 197 196 197 198 196 200
358 170 307 355 45 312 1 13 338 285 151 204 195 256 347 318 342 360 360 346 338 340 325 227 210 197 197 193 188 184 185 182 181 187 193 194 194 197 197 195 196 200 202 210
335 68 311 306 332 46 78 36 42 52 306 296 250 199 269 283 24 27 18 5 10 358 349 8 121 144 177 183 180 178 179 177 177 182 189 191 195 197 198 196 198 204 209 211
327 352 330 344 14 30 25 17 5 313 239 244 322 242 98 26 17 29 29 3 12 16 19 22 36 68 141 156 163 167 173 172 172 182 187 188 193 192 195 198 203 213 214 220
34 98 146 192 292 287 296 334 345 22 286 334 264 348 344 2 12 1 8 14 2 1 23 37 28 29 88 128 160 165 170 179 182 186 185 191 197 201 205 210 215 216 218 220
123 213 202 230 243 269 287 300 298 285 266 264 297 313 325 339 338 335 328 350 12 357 8 45 43 18 51 80 101 136 160 172 178 181 190 192 195 198 202 211 216 218 221 225
19 261 205 255 231 249 272 271 276 266 267 269 268 286 353 352 357 348 329 318 344 339 5 9 63 50 31 72 107 132 157 174 191 191 192 194 196 198 207 213 217 220 222 222
171 159 104 263 212 258 275 248 244 243 228 245 250 245 23 329 338 326 313 324 21 319 2 25 20 58 51 65 67 106 173 189 192 195 194 200 202 206 212 215 217 215 211 215
164 141 159 269 53 252 238 206 229 255 265 270 274 262 210 274 292 300 309 323 349 14 40 18 52 13 7 31 56 65 97 182 201 207 200 210 214 213 214 214 210 203 200 207
188 141 234 171 205 282 286 220 221 223 263 268 260 255 252 232 266 279 267 303 100 354 28 48 33 30 346 339 32 75 69 82 187 196 211 213 210 214 208 197 183 184 194 213
124 134 155 140 194 231 187 203 200 162 267 242 245 245 255 222 215 221 208 276 44 115 67 69 43 13 22 343 107 80 81 112 116 170 191 203 210 201 173 169 172 183 208 243
194 198 213 228 234 269 245 229 150 165 245 264 204 192 215 222 214 227 180 234 216 3 125 138 127 106 335 330 102 101 91 87 111 118 120 129 144 147 152 155 171 207 235 248
190 218 211 225 223 276 214 143 189 214 205 291 289 230 205 232 265 273 288 186 230 233 281 195 145 129 163 262 103 121 123 134 115 108 123 124 121 122 144 164 210 214 226 242
255 208 218 193 217 235 217 228 287 275 263 229 251 239 231 239 250 252 270 274 225 245 210 213 221 188 168 175 200 183 148 146 142 134 163 182 155 166 173 174 203 280 319 329
242 232 236 265 227 247 258 261 258 263 271 274 242 265 239 223 248 248 242 272 274 223 208 221 198 201 193 181 175 209 190 177 170 149 149 155 154 153 95 63 11 316 289 299
247 214 235 249 265 273 263 244 245 254 251 239 239 246 253 241 239 236 233 231 247 239 216 192 205 199 214 199 175 165 167 164 154 150 143 140 132 156 98 137 254 284 305 304
250 252 249 258 256 250 261 242 229 241 246 240 239 249 241 235 235 233 214 232 261 253 207 199 193 204 208 178 159 164 172 169 154 138 138 152 156 156 157 247 317 302 292 304